Time,TemperatureF,DewpointF,PressureIn,WindDirection,WindDirectionDegrees,WindSpeedMPH,WindSpeedGustMPH,Humidity,HourlyPrecipIn,Conditions,Clouds,dailyrainin,SoftwareType,DateUTC
2013-01-07 00:00:00,29.7,10.4,30.23,NW,307,0.0,0.0,44,0.00,,,-99.99,Weather View 32 v60,2013-01-07 05:00:00,
2013-01-07 00:05:00,29.7,10.4,30.23,NW,306,0.0,0.0,44,0.00,,,-99.99,Weather View 32 v60,2013-01-07 05:05:00,
2013-01-07 00:10:00,29.7,10.4,30.23,NW,306,0.0,0.0,44,0.00,,,-99.99,Weather View 32 v60,2013-01-07 05:10:00,
2013-01-07 00:15:00,29.8,10.6,30.23,NW,306,0.0,0.0,44,0.00,,,-99.99,Weather View 32 v60,2013-01-07 05:15:00,
2013-01-07 00:20:00,29.7,10.4,30.23,NW,306,0.0,0.0,44,0.00,,,-99.99,Weather View 32 v60,2013-01-07 05:20:00,
2013-01-07 00:25:00,29.7,10.4,30.23,NW,306,0.0,0.0,44,0.00,,,-99.99,Weather View 32 v60,2013-01-07 05:25:00,
2013-01-07 00:30:00,29.7,10.4,30.23,NW,307,0.0,0.0,44,0.00,,,-99.99,Weather View 32 v60,2013-01-07 05:30:00,
2013-01-07 00:35:00,29.7,10.4,30.23,NW,306,0.0,0.0,44,0.00,,,-99.99,Weather View 32 v60,2013-01-07 05:35:00,
2013-01-07 00:45:00,29.7,10.4,30.23,NW,306,0.0,0.0,44,0.00,,,-99.99,Weather View 32 v60,2013-01-07 05:45:00,
2013-01-07 00:50:00,29.7,10.4,30.23,NW,307,0.0,0.0,44,0.00,,,-99.99,Weather View 32 v60,2013-01-07 05:50:00,
2013-01-07 00:55:00,29.7,10.4,30.23,West,280,0.0,0.0,44,0.00,,,-99.99,Weather View 32 v60,2013-01-07 05:55:00,
2013-01-07 01:00:00,29.7,10.4,30.23,West,276,0.0,0.0,44,0.00,,,-99.99,Weather View 32 v60,2013-01-07 06:00:00,
2013-01-07 01:05:00,29.7,10.4,30.23,West,276,0.0,0.0,44,0.00,,,-99.99,Weather View 32 v60,2013-01-07 06:05:00,
2013-01-07 01:10:00,29.7,10.9,30.23,West,276,0.0,0.0,45,0.00,,,-99.99,Weather View 32 v60,2013-01-07 06:10:00,
2013-01-07 01:15:00,29.7,10.9,30.23,SW,236,0.0,0.0,45,0.00,,,-99.99,Weather View 32 v60,2013-01-07 06:15:00,
2013-01-07 01:20:00,29.7,10.9,30.23,SW,232,0.0,0.0,45,0.00,,,-99.99,Weather View 32 v60,2013-01-07 06:20:00,
2013-01-07 01:25:00,29.7,10.9,30.23,WSW,247,0.0,0.0,45,0.00,,,-99.99,Weather View 32 v60,2013-01-07 06:25:00,
2013-01-07 01:30:00,29.7,10.9,30.23,WSW,257,0.0,0.0,45,0.00,,,-99.99,Weather View 32 v60,2013-01-07 06:30:00,
2013-01-07 01:35:00,29.8,11.1,30.23,WSW,248,0.0,0.0,45,0.00,,,-99.99,Weather View 32 v60,2013-01-07 06:35:00,
2013-01-07 01:40:00,29.8,11.1,30.23,WSW,255,0.0,0.0,45,0.00,,,-99.99,Weather View 32 v60,2013-01-07 06:40:00,
2013-01-07 01:45:00,29.8,11.1,30.23,WSW,240,0.0,0.0,45,0.00,,,-99.99,Weather View 32 v60,2013-01-07 06:45:00,
2013-01-07 01:50:00,29.8,11.1,30.23,WSW,253,0.0,0.0,45,0.00,,,-99.99,Weather View 32 v60,2013-01-07 06:50:00,
2013-01-07 01:55:00,29.8,11.1,30.23,WSW,247,0.0,0.0,45,0.00,,,-99.99,Weather View 32 v60,2013-01-07 06:55:00,
2013-01-07 02:00:00,29.8,11.1,30.23,West,265,0.0,0.0,45,0.00,,,-99.99,Weather View 32 v60,2013-01-07 07:00:00,
2013-01-07 02:05:00,29.8,11.6,30.23,WSW,252,0.0,0.0,46,0.00,,,-99.99,Weather View 32 v60,2013-01-07 07:05:00,
2013-01-07 02:10:00,30.0,11.7,30.23,WSW,243,0.0,0.0,46,0.00,,,-99.99,Weather View 32 v60,2013-01-07 07:10:00,
2013-01-07 02:15:00,30.0,11.7,30.23,West,271,0.0,0.0,46,0.00,,,-99.99,Weather View 32 v60,2013-01-07 07:15:00,
2013-01-07 02:20:00,30.0,11.7,30.23,WSW,258,0.0,0.0,46,0.00,,,-99.99,Weather View 32 v60,2013-01-07 07:20:00,
2013-01-07 02:25:00,30.0,11.7,30.26,WSW,247,0.0,0.0,46,0.00,,,-99.99,Weather View 32 v60,2013-01-07 07:25:00,
2013-01-07 02:30:00,30.0,11.7,30.26,WSW,241,0.0,0.0,46,0.00,,,-99.99,Weather View 32 v60,2013-01-07 07:30:00,
2013-01-07 02:36:00,30.0,11.7,30.26,WSW,245,0.0,0.0,46,0.00,,,-99.99,Weather View 32 v60,2013-01-07 07:36:00,
2013-01-07 02:45:00,30.0,11.7,30.26,West,259,0.0,0.0,46,0.00,,,-99.99,Weather View 32 v60,2013-01-07 07:45:00,
2013-01-07 02:50:00,29.8,11.6,30.26,WSW,245,0.0,0.0,46,0.00,,,-99.99,Weather View 32 v60,2013-01-07 07:50:00,
2013-01-07 02:55:00,29.8,11.6,30.26,WSW,250,0.0,0.0,46,0.00,,,-99.99,Weather View 32 v60,2013-01-07 07:55:00,
2013-01-07 03:00:00,29.8,11.6,30.26,WSW,247,0.0,0.0,46,0.00,,,-99.99,Weather View 32 v60,2013-01-07 08:00:00,
2013-01-07 03:05:00,29.8,11.6,30.26,WSW,242,0.0,0.0,46,0.00,,,-99.99,Weather View 32 v60,2013-01-07 08:05:00,
2013-01-07 03:10:00,29.8,11.6,30.26,WSW,242,0.0,0.0,46,0.00,,,-99.99,Weather View 32 v60,2013-01-07 08:10:00,
2013-01-07 03:15:00,29.8,11.6,30.26,West,266,0.0,0.0,46,0.00,,,-99.99,Weather View 32 v60,2013-01-07 08:15:00,
2013-01-07 03:20:00,29.8,11.6,30.26,West,266,0.0,0.0,46,0.00,,,-99.99,Weather View 32 v60,2013-01-07 08:20:00,
2013-01-07 03:25:00,29.7,11.4,30.26,West,266,0.0,0.0,46,0.00,,,-99.99,Weather View 32 v60,2013-01-07 08:25:00,
2013-01-07 03:30:00,29.7,11.4,30.26,SW,236,0.0,0.0,46,0.00,,,-99.99,Weather View 32 v60,2013-01-07 08:30:00,
2013-01-07 03:35:00,29.7,11.4,30.26,WSW,240,0.0,0.0,46,0.00,,,-99.99,Weather View 32 v60,2013-01-07 08:35:00,
2013-01-07 03:40:00,29.7,11.4,30.26,SW,233,0.0,0.0,46,0.00,,,-99.99,Weather View 32 v60,2013-01-07 08:40:00,
2013-01-07 03:45:00,29.5,11.2,30.26,SW,233,0.0,0.0,46,0.00,,,-99.99,Weather View 32 v60,2013-01-07 08:45:00,
2013-01-07 03:50:00,29.5,11.2,30.26,SW,234,0.0,0.0,46,0.00,,,-99.99,Weather View 32 v60,2013-01-07 08:50:00,
2013-01-07 04:00:00,29.5,10.7,30.26,SW,232,0.0,0.0,45,0.00,,,-99.99,Weather View 32 v60,2013-01-07 09:00:00,
2013-01-07 04:10:00,29.1,10.4,30.23,SW,232,0.0,0.0,45,0.00,,,-99.99,Weather View 32 v60,2013-01-07 09:10:00,
2013-01-07 04:15:00,29.1,10.4,30.23,SW,229,0.0,0.0,45,0.00,,,-99.99,Weather View 32 v60,2013-01-07 09:15:00,
2013-01-07 04:20:00,29.1,10.4,30.26,WSW,237,0.0,0.0,45,0.00,,,-99.99,Weather View 32 v60,2013-01-07 09:20:00,
2013-01-07 04:25:00,28.9,10.2,30.26,WSW,248,0.0,4.0,45,0.00,,,-99.99,Weather View 32 v60,2013-01-07 09:25:00,
2013-01-07 04:30:00,28.9,10.2,30.26,SSW,200,3.0,4.0,45,0.00,,,-99.99,Weather View 32 v60,2013-01-07 09:30:00,
2013-01-07 04:35:00,28.9,10.2,30.26,West,259,4.0,5.0,45,0.00,,,-99.99,Weather View 32 v60,2013-01-07 09:35:00,
2013-01-07 04:40:00,28.9,10.2,30.26,WSW,238,2.0,5.0,45,0.00,,,-99.99,Weather View 32 v60,2013-01-07 09:40:00,
2013-01-07 04:45:00,28.8,10.1,30.26,SW,225,0.0,5.0,45,0.00,,,-99.99,Weather View 32 v60,2013-01-07 09:45:00,
2013-01-07 04:50:00,28.8,10.1,30.26,SW,222,2.0,5.0,45,0.00,,,-99.99,Weather View 32 v60,2013-01-07 09:50:00,
2013-01-07 04:55:00,28.8,10.1,30.26,SW,226,3.0,5.0,45,0.00,,,-99.99,Weather View 32 v60,2013-01-07 09:55:00,
2013-01-07 05:00:00,28.8,10.1,30.26,SSW,205,0.0,5.0,45,0.00,,,-99.99,Weather View 32 v60,2013-01-07 10:00:00,
2013-01-07 05:05:00,28.8,10.1,30.26,SSW,202,0.0,5.0,45,0.00,,,-99.99,Weather View 32 v60,2013-01-07 10:05:00,
2013-01-07 05:10:00,28.8,10.1,30.26,South,191,0.0,5.0,45,0.00,,,-99.99,Weather View 32 v60,2013-01-07 10:10:00,
2013-01-07 05:15:00,28.8,10.1,30.26,South,186,0.0,5.0,45,0.00,,,-99.99,Weather View 32 v60,2013-01-07 10:15:00,
2013-01-07 05:25:00,28.6,9.4,30.23,South,173,0.0,5.0,44,0.00,,,-99.99,Weather View 32 v60,2013-01-07 10:25:00,
2013-01-07 05:30:00,28.6,9.4,30.23,South,170,0.0,5.0,44,0.00,,,-99.99,Weather View 32 v60,2013-01-07 10:30:00,
2013-01-07 05:35:00,28.6,9.4,30.23,SSE,159,3.0,5.0,44,0.00,,,-99.99,Weather View 32 v60,2013-01-07 10:35:00,
2013-01-07 05:40:00,28.6,9.4,30.23,SSE,163,3.0,4.0,44,0.00,,,-99.99,Weather View 32 v60,2013-01-07 10:40:00,
2013-01-07 05:45:00,28.6,8.9,30.23,SSE,164,0.0,4.0,43,0.00,,,-99.99,Weather View 32 v60,2013-01-07 10:45:00,
2013-01-07 05:55:00,28.2,9.1,30.23,SSE,164,0.0,4.0,44,0.00,,,-99.99,Weather View 32 v60,2013-01-07 10:55:00,
2013-01-07 06:00:00,28.2,9.1,30.23,SSE,164,0.0,4.0,44,0.00,,,-99.99,Weather View 32 v60,2013-01-07 11:00:00,
2013-01-07 06:10:00,28.0,8.9,30.23,SSE,162,0.0,3.0,44,0.00,,,-99.99,Weather View 32 v60,2013-01-07 11:10:00,
2013-01-07 06:15:00,28.0,8.9,30.23,SSE,162,0.0,3.0,44,0.00,,,-99.99,Weather View 32 v60,2013-01-07 11:15:00,
2013-01-07 06:25:00,27.9,8.2,30.23,SSE,161,0.0,3.0,43,0.00,,,-99.99,Weather View 32 v60,2013-01-07 11:25:00,
2013-01-07 06:35:00,27.9,8.2,30.23,SSE,165,0.0,3.0,43,0.00,,,-99.99,Weather View 32 v60,2013-01-07 11:35:00,
2013-01-07 06:40:00,27.9,8.2,30.23,South,176,0.0,3.0,43,0.00,,,-99.99,Weather View 32 v60,2013-01-07 11:40:00,
2013-01-07 06:45:00,27.9,8.2,30.23,SSE,160,0.0,0.0,43,0.00,,,-99.99,Weather View 32 v60,2013-01-07 11:45:00,
2013-01-07 06:50:00,27.9,8.2,30.23,SSE,160,0.0,0.0,43,0.00,,,-99.99,Weather View 32 v60,2013-01-07 11:50:00,
2013-01-07 06:55:00,27.9,8.2,30.23,SSE,168,0.0,0.0,43,0.00,,,-99.99,Weather View 32 v60,2013-01-07 11:55:00,
2013-01-07 07:00:00,27.9,8.2,30.23,South,189,0.0,0.0,43,0.00,,,-99.99,Weather View 32 v60,2013-01-07 12:00:00,
2013-01-07 07:05:00,28.0,8.4,30.23,SSE,167,0.0,0.0,43,0.00,,,-99.99,Weather View 32 v60,2013-01-07 12:05:00,
2013-01-07 07:10:00,28.0,8.4,30.23,South,169,0.0,0.0,43,0.00,,,-99.99,Weather View 32 v60,2013-01-07 12:10:00,
2013-01-07 07:15:00,28.0,8.4,30.23,SSW,196,0.0,0.0,43,0.00,,,-99.99,Weather View 32 v60,2013-01-07 12:15:00,
2013-01-07 07:20:00,28.2,8.6,30.23,SSE,168,0.0,4.0,43,0.00,,,-99.99,Weather View 32 v60,2013-01-07 12:20:00,
2013-01-07 07:25:00,28.2,8.6,30.23,SSW,196,2.0,4.0,43,0.00,,,-99.99,Weather View 32 v60,2013-01-07 12:25:00,
2013-01-07 07:30:00,28.2,8.6,30.23,SSW,205,0.0,4.0,43,0.00,,,-99.99,Weather View 32 v60,2013-01-07 12:30:00,
2013-01-07 07:39:00,28.4,8.7,30.23,SSE,162,2.0,4.0,43,0.00,,,-99.99,Weather View 32 v60,2013-01-07 12:39:00,
2013-01-07 07:45:00,28.6,8.9,30.23,South,187,0.0,4.0,43,0.00,,,-99.99,Weather View 32 v60,2013-01-07 12:45:00,
2013-01-07 07:50:00,28.6,8.9,30.23,South,186,0.0,4.0,43,0.00,,,-99.99,Weather View 32 v60,2013-01-07 12:50:00,
2013-01-07 07:55:00,28.6,8.9,30.23,South,186,3.0,4.0,43,0.00,,,-99.99,Weather View 32 v60,2013-01-07 12:55:00,
2013-01-07 08:00:00,28.6,8.9,30.23,SSW,192,3.0,4.0,43,0.00,,,-99.99,Weather View 32 v60,2013-01-07 13:00:00,
2013-01-07 08:10:00,28.6,8.9,30.23,SSW,200,0.0,4.0,43,0.00,,,-99.99,Weather View 32 v60,2013-01-07 13:10:00,
2013-01-07 08:15:00,28.6,8.9,30.23,South,180,3.0,4.0,43,0.00,,,-99.99,Weather View 32 v60,2013-01-07 13:15:00,
2013-01-07 08:20:00,28.6,8.9,30.23,SW,215,0.0,5.0,43,0.00,,,-99.99,Weather View 32 v60,2013-01-07 13:20:00,
2013-01-07 08:25:00,28.6,8.9,30.23,SSW,213,4.0,5.0,43,0.00,,,-99.99,Weather View 32 v60,2013-01-07 13:25:00,
2013-01-07 08:30:00,28.6,8.9,30.23,SW,229,3.0,5.0,43,0.00,,,-99.99,Weather View 32 v60,2013-01-07 13:30:00,
2013-01-07 08:35:00,28.6,8.9,30.23,SSW,196,3.0,6.0,43,0.00,,,-99.99,Weather View 32 v60,2013-01-07 13:35:00,
2013-01-07 08:40:00,28.6,8.9,30.23,South,177,2.0,6.0,43,0.00,,,-99.99,Weather View 32 v60,2013-01-07 13:40:00,
2013-01-07 08:45:00,28.6,8.9,30.23,South,187,0.0,6.0,43,0.00,,,-99.99,Weather View 32 v60,2013-01-07 13:45:00,
2013-01-07 08:50:00,28.6,8.9,30.23,South,183,0.0,6.0,43,0.00,,,-99.99,Weather View 32 v60,2013-01-07 13:50:00,
2013-01-07 08:55:00,28.6,8.9,30.26,SSW,196,4.0,6.0,43,0.00,,,-99.99,Weather View 32 v60,2013-01-07 13:55:00,
2013-01-07 09:00:00,28.6,8.9,30.26,SSE,161,2.0,6.0,43,0.00,,,-99.99,Weather View 32 v60,2013-01-07 14:00:00,
2013-01-07 09:05:00,28.6,9.4,30.23,South,188,3.0,6.0,44,0.00,,,-99.99,Weather View 32 v60,2013-01-07 14:05:00,
2013-01-07 09:10:00,28.8,9.6,30.23,SSE,168,3.0,6.0,44,0.00,,,-99.99,Weather View 32 v60,2013-01-07 14:10:00,
2013-01-07 09:15:00,28.9,9.7,30.23,West,276,3.0,6.0,44,0.00,,,-99.99,Weather View 32 v60,2013-01-07 14:15:00,
2013-01-07 09:20:00,28.9,9.7,30.23,SW,230,3.0,6.0,44,0.00,,,-99.99,Weather View 32 v60,2013-01-07 14:20:00,
2013-01-07 09:25:00,28.9,9.7,30.23,SW,223,2.0,6.0,44,0.00,,,-99.99,Weather View 32 v60,2013-01-07 14:25:00,
2013-01-07 09:30:00,29.1,9.9,30.23,South,178,0.0,7.0,44,0.00,,,-99.99,Weather View 32 v60,2013-01-07 14:30:00,
2013-01-07 09:35:00,29.1,9.9,30.23,SSE,150,2.0,9.0,44,0.00,,,-99.99,Weather View 32 v60,2013-01-07 14:35:00,
2013-01-07 09:40:00,29.3,10.1,30.23,SSE,163,3.0,9.0,44,0.00,,,-99.99,Weather View 32 v60,2013-01-07 14:40:00,
2013-01-07 09:45:00,29.3,10.1,30.23,SW,226,6.0,9.0,44,0.00,,,-99.99,Weather View 32 v60,2013-01-07 14:45:00,
2013-01-07 09:50:00,29.5,10.2,30.23,WSW,252,4.0,9.0,44,0.00,,,-99.99,Weather View 32 v60,2013-01-07 14:50:00,
2013-01-07 09:55:00,29.5,10.2,30.23,SSW,201,3.0,9.0,44,0.00,,,-99.99,Weather View 32 v60,2013-01-07 14:55:00,
2013-01-07 10:00:00,29.5,10.2,30.23,ESE,112,3.0,9.0,44,0.00,,,-99.99,Weather View 32 v60,2013-01-07 15:00:00,
2013-01-07 10:05:00,29.7,10.4,30.23,SW,228,4.0,9.0,44,0.00,,,-99.99,Weather View 32 v60,2013-01-07 15:05:00,
2013-01-07 10:10:00,29.8,10.6,30.23,SW,218,3.0,9.0,44,0.00,,,-99.99,Weather View 32 v60,2013-01-07 15:10:00,
2013-01-07 10:15:00,29.8,10.6,30.23,SE,144,3.0,9.0,44,0.00,,,-99.99,Weather View 32 v60,2013-01-07 15:15:00,
2013-01-07 10:20:00,29.8,10.6,30.23,SSE,160,6.0,9.0,44,0.00,,,-99.99,Weather View 32 v60,2013-01-07 15:20:00,
2013-01-07 10:25:00,30.0,10.7,30.23,SSW,199,5.0,9.0,44,0.00,,,-99.99,Weather View 32 v60,2013-01-07 15:25:00,
2013-01-07 10:30:00,30.0,10.2,30.23,West,265,6.0,13.0,43,0.00,,,-99.99,Weather View 32 v60,2013-01-07 15:30:00,
2013-01-07 10:35:00,30.0,10.2,30.23,SSW,202,5.0,13.0,43,0.00,,,-99.99,Weather View 32 v60,2013-01-07 15:35:00,
2013-01-07 10:40:00,30.2,10.4,30.23,SW,219,6.0,13.0,43,0.00,,,-99.99,Weather View 32 v60,2013-01-07 15:40:00,
2013-01-07 10:50:00,30.2,10.4,30.23,South,182,5.0,13.0,43,0.00,,,-99.99,Weather View 32 v60,2013-01-07 15:50:00,
2013-01-07 10:55:00,30.4,10.0,30.23,South,184,3.0,13.0,42,0.00,,,-99.99,Weather View 32 v60,2013-01-07 15:55:00,
2013-01-07 11:00:00,30.6,10.2,30.23,SSE,150,5.0,13.0,42,0.00,,,-99.99,Weather View 32 v60,2013-01-07 16:00:00,
2013-01-07 11:05:00,30.6,10.2,30.23,SW,221,3.0,13.0,42,0.00,,,-99.99,Weather View 32 v60,2013-01-07 16:05:00,
2013-01-07 11:10:00,30.6,10.2,30.20,WSW,252,4.0,13.0,42,0.00,,,-99.99,Weather View 32 v60,2013-01-07 16:10:00,
2013-01-07 11:15:00,30.7,10.3,30.20,SW,224,5.0,13.0,42,0.00,,,-99.99,Weather View 32 v60,2013-01-07 16:15:00,
2013-01-07 11:20:00,30.9,10.0,30.20,SSE,147,3.0,13.0,41,0.00,,,-99.99,Weather View 32 v60,2013-01-07 16:20:00,
2013-01-07 11:25:00,31.1,10.1,30.20,South,187,2.0,13.0,41,0.00,,,-99.99,Weather View 32 v60,2013-01-07 16:25:00,
2013-01-07 11:30:00,31.1,10.1,30.20,SSW,202,5.0,11.0,41,0.00,,,-99.99,Weather View 32 v60,2013-01-07 16:30:00,
2013-01-07 11:35:00,31.3,10.3,30.17,SSE,162,6.0,13.0,41,0.00,,,-99.99,Weather View 32 v60,2013-01-07 16:35:00,
2013-01-07 11:40:00,31.6,10.6,30.17,SW,221,4.0,13.0,41,0.00,,,-99.99,Weather View 32 v60,2013-01-07 16:40:00,
2013-01-07 11:45:00,31.8,10.2,30.17,SSE,166,3.0,13.0,40,0.00,,,-99.99,Weather View 32 v60,2013-01-07 16:45:00,
2013-01-07 11:50:00,32.0,10.4,30.17,SE,130,9.0,13.0,40,0.00,,,-99.99,Weather View 32 v60,2013-01-07 16:50:00,
2013-01-07 11:55:00,32.2,10.6,30.14,South,185,5.0,13.0,40,0.00,,,-99.99,Weather View 32 v60,2013-01-07 16:55:00,
2013-01-07 12:00:00,32.2,10.0,30.14,SSE,150,3.0,13.0,39,0.00,,,-99.99,Weather View 32 v60,2013-01-07 17:00:00,
2013-01-07 12:05:00,32.4,10.1,30.14,SW,229,6.0,13.0,39,0.00,,,-99.99,Weather View 32 v60,2013-01-07 17:05:00,
2013-01-07 12:10:00,32.5,10.3,30.14,WSW,253,6.0,13.0,39,0.00,,,-99.99,Weather View 32 v60,2013-01-07 17:10:00,
2013-01-07 12:15:00,32.7,9.3,30.14,SW,222,4.0,13.0,37,0.00,,,-99.99,Weather View 32 v60,2013-01-07 17:15:00,
2013-01-07 12:20:00,32.9,9.5,30.14,SW,219,3.0,13.0,37,0.00,,,-99.99,Weather View 32 v60,2013-01-07 17:20:00,
2013-01-07 12:25:00,32.9,8.8,30.14,SSE,159,4.0,13.0,36,0.00,,,-99.99,Weather View 32 v60,2013-01-07 17:25:00,
2013-01-07 12:30:00,32.9,8.8,30.14,WSW,256,3.0,13.0,36,0.00,,,-99.99,Weather View 32 v60,2013-01-07 17:30:00,
2013-01-07 12:35:00,33.1,9.0,30.14,East,81,6.0,12.0,36,0.00,,,-99.99,Weather View 32 v60,2013-01-07 17:35:00,
2013-01-07 12:40:00,33.1,9.0,30.14,WSW,241,5.0,12.0,36,0.00,,,-99.99,Weather View 32 v60,2013-01-07 17:40:00,
2013-01-07 12:45:00,33.3,9.2,30.14,WSW,242,6.0,13.0,36,0.00,,,-99.99,Weather View 32 v60,2013-01-07 17:45:00,
2013-01-07 12:50:00,33.4,8.7,30.14,SW,215,3.0,13.0,35,0.00,,,-99.99,Weather View 32 v60,2013-01-07 17:50:00,
2013-01-07 12:55:00,33.4,8.1,30.14,SW,231,13.0,13.0,34,0.00,,,-99.99,Weather View 32 v60,2013-01-07 17:55:00,
2013-01-07 13:00:00,33.4,7.4,30.14,WSW,245,10.0,13.0,33,0.00,,,-99.99,Weather View 32 v60,2013-01-07 18:00:00,
2013-01-07 13:05:00,33.6,7.6,30.14,WSW,244,13.0,15.0,33,0.00,,,-99.99,Weather View 32 v60,2013-01-07 18:05:00,
2013-01-07 13:10:00,33.6,8.2,30.14,WSW,256,8.0,15.0,34,0.00,,,-99.99,Weather View 32 v60,2013-01-07 18:10:00,
2013-01-07 13:15:00,33.6,7.6,30.14,South,190,8.0,15.0,33,0.00,,,-99.99,Weather View 32 v60,2013-01-07 18:15:00,
2013-01-07 13:20:00,33.8,7.7,30.14,SE,145,4.0,15.0,33,0.00,,,-99.99,Weather View 32 v60,2013-01-07 18:20:00,
2013-01-07 13:30:00,33.8,7.0,30.14,SSW,208,4.0,15.0,32,0.00,,,-99.99,Weather View 32 v60,2013-01-07 18:30:00,
2013-01-07 13:35:00,34.0,7.9,30.14,SSW,199,4.0,15.0,33,0.00,,,-99.99,Weather View 32 v60,2013-01-07 18:35:00,
2013-01-07 13:40:00,34.0,7.2,30.11,SSW,196,6.0,15.0,32,0.00,,,-99.99,Weather View 32 v60,2013-01-07 18:40:00,
2013-01-07 13:45:00,34.2,7.4,30.11,WSW,240,5.0,15.0,32,0.00,,,-99.99,Weather View 32 v60,2013-01-07 18:45:00,
2013-01-07 13:50:00,34.2,7.4,30.11,SW,216,8.0,15.0,32,0.00,,,-99.99,Weather View 32 v60,2013-01-07 18:50:00,
2013-01-07 14:00:00,34.3,7.5,30.11,WSW,250,7.0,15.0,32,0.00,,,-99.99,Weather View 32 v60,2013-01-07 19:00:00,
2013-01-07 14:05:00,34.5,7.7,30.11,SSW,209,4.0,15.0,32,0.00,,,-99.99,Weather View 32 v60,2013-01-07 19:05:00,
2013-01-07 14:10:00,34.5,7.7,30.11,SW,236,4.0,15.0,32,0.00,,,-99.99,Weather View 32 v60,2013-01-07 19:10:00,
2013-01-07 14:15:00,34.7,7.1,30.11,WSW,247,9.0,15.0,31,0.00,,,-99.99,Weather View 32 v60,2013-01-07 19:15:00,
2013-01-07 14:20:00,34.7,7.1,30.11,SW,220,8.0,15.0,31,0.00,,,-99.99,Weather View 32 v60,2013-01-07 19:20:00,
2013-01-07 14:25:00,34.9,7.3,30.08,SSW,208,3.0,15.0,31,0.00,,,-99.99,Weather View 32 v60,2013-01-07 19:25:00,
2013-01-07 14:30:00,34.9,7.3,30.08,WSW,253,6.0,15.0,31,0.00,,,-99.99,Weather View 32 v60,2013-01-07 19:30:00,
2013-01-07 14:35:00,34.9,7.3,30.08,WSW,246,4.0,13.0,31,0.00,,,-99.99,Weather View 32 v60,2013-01-07 19:35:00,
2013-01-07 14:40:00,34.9,7.3,30.08,West,272,4.0,13.0,31,0.00,,,-99.99,Weather View 32 v60,2013-01-07 19:40:00,
2013-01-07 14:45:00,35.1,7.4,30.08,NNW,341,8.0,13.0,31,0.00,,,-99.99,Weather View 32 v60,2013-01-07 19:45:00,
2013-01-07 14:50:00,35.1,7.4,30.08,SW,229,6.0,13.0,31,0.00,,,-99.99,Weather View 32 v60,2013-01-07 19:50:00,
2013-01-07 14:55:00,35.1,7.4,30.08,WNW,283,8.0,13.0,31,0.00,,,-99.99,Weather View 32 v60,2013-01-07 19:55:00,
2013-01-07 15:00:00,35.2,7.6,30.08,South,181,3.0,13.0,31,0.00,,,-99.99,Weather View 32 v60,2013-01-07 20:00:00,
2013-01-07 15:05:00,35.2,7.6,30.08,WSW,251,0.0,13.0,31,0.00,,,-99.99,Weather View 32 v60,2013-01-07 20:05:00,
2013-01-07 15:10:00,35.2,7.6,30.08,ESE,111,8.0,13.0,31,0.00,,,-99.99,Weather View 32 v60,2013-01-07 20:10:00,
2013-01-07 15:15:00,35.4,7.8,30.08,South,190,4.0,13.0,31,0.00,,,-99.99,Weather View 32 v60,2013-01-07 20:15:00,
2013-01-07 15:20:00,35.4,7.8,30.05,South,172,4.0,13.0,31,0.00,,,-99.99,Weather View 32 v60,2013-01-07 20:20:00,
2013-01-07 15:25:00,35.4,7.8,30.05,SSW,200,5.0,13.0,31,0.00,,,-99.99,Weather View 32 v60,2013-01-07 20:25:00,
2013-01-07 15:30:00,35.4,7.0,30.05,South,173,2.0,13.0,30,0.00,,,-99.99,Weather View 32 v60,2013-01-07 20:30:00,
2013-01-07 15:35:00,35.6,7.2,30.05,SSW,203,6.0,13.0,30,0.00,,,-99.99,Weather View 32 v60,2013-01-07 20:35:00,
2013-01-07 15:40:00,35.6,7.2,30.05,WSW,241,3.0,13.0,30,0.00,,,-99.99,Weather View 32 v60,2013-01-07 20:40:00,
2013-01-07 15:45:00,35.6,7.2,30.05,SSW,211,2.0,10.0,30,0.00,,,-99.99,Weather View 32 v60,2013-01-07 20:45:00,
2013-01-07 15:50:00,35.6,7.2,30.05,SSW,207,4.0,10.0,30,0.00,,,-99.99,Weather View 32 v60,2013-01-07 20:50:00,
2013-01-07 15:55:00,35.6,7.2,30.05,SSE,151,5.0,11.0,30,0.00,,,-99.99,Weather View 32 v60,2013-01-07 20:55:00,
2013-01-07 16:00:00,35.6,7.2,30.05,SSE,152,4.0,11.0,30,0.00,,,-99.99,Weather View 32 v60,2013-01-07 21:00:00,
2013-01-07 16:05:00,35.6,7.2,30.05,SSW,205,4.0,11.0,30,0.00,,,-99.99,Weather View 32 v60,2013-01-07 21:05:00,
2013-01-07 16:10:00,35.6,7.2,30.05,South,171,3.0,11.0,30,0.00,,,-99.99,Weather View 32 v60,2013-01-07 21:10:00,
2013-01-07 16:15:00,35.6,7.2,30.05,SSW,199,9.0,11.0,30,0.00,,,-99.99,Weather View 32 v60,2013-01-07 21:15:00,
2013-01-07 16:20:00,35.4,7.0,30.05,South,186,0.0,11.0,30,0.00,,,-99.99,Weather View 32 v60,2013-01-07 21:20:00,
2013-01-07 16:25:00,35.4,7.0,30.05,SSW,198,6.0,15.0,30,0.00,,,-99.99,Weather View 32 v60,2013-01-07 21:25:00,
2013-01-07 16:30:00,35.4,7.0,30.05,SSE,152,3.0,15.0,30,0.00,,,-99.99,Weather View 32 v60,2013-01-07 21:30:00,
2013-01-07 16:40:00,35.1,6.7,30.05,SW,235,5.0,15.0,30,0.00,,,-99.99,Weather View 32 v60,2013-01-07 21:40:00,
2013-01-07 16:45:00,35.1,6.7,30.05,SSE,152,3.0,15.0,30,0.00,,,-99.99,Weather View 32 v60,2013-01-07 21:45:00,
2013-01-07 16:50:00,34.9,6.6,30.05,South,187,4.0,15.0,30,0.00,,,-99.99,Weather View 32 v60,2013-01-07 21:50:00,
2013-01-07 16:55:00,34.9,6.6,30.02,WSW,246,4.0,15.0,30,0.00,,,-99.99,Weather View 32 v60,2013-01-07 21:55:00,
2013-01-07 17:00:00,34.9,6.6,30.02,SSW,206,5.0,15.0,30,0.00,,,-99.99,Weather View 32 v60,2013-01-07 22:00:00,
2013-01-07 17:05:00,34.7,6.4,30.02,SSW,213,6.0,15.0,30,0.00,,,-99.99,Weather View 32 v60,2013-01-07 22:05:00,
2013-01-07 17:15:00,34.5,6.2,30.02,SW,221,6.0,15.0,30,0.00,,,-99.99,Weather View 32 v60,2013-01-07 22:15:00,
2013-01-07 17:25:00,34.5,6.2,30.02,SSW,212,4.0,15.0,30,0.00,,,-99.99,Weather View 32 v60,2013-01-07 22:25:00,
2013-01-07 17:30:00,34.3,6.1,30.02,West,261,3.0,12.0,30,0.00,,,-99.99,Weather View 32 v60,2013-01-07 22:30:00,
2013-01-07 17:35:00,34.3,6.1,30.02,SW,231,6.0,8.0,30,0.00,,,-99.99,Weather View 32 v60,2013-01-07 22:35:00,
2013-01-07 17:40:00,34.3,6.1,30.02,WSW,246,2.0,8.0,30,0.00,,,-99.99,Weather View 32 v60,2013-01-07 22:40:00,
2013-01-07 17:50:00,34.0,5.8,30.05,SSE,164,3.0,8.0,30,0.00,,,-99.99,Weather View 32 v60,2013-01-07 22:50:00,
2013-01-07 17:55:00,34.0,5.8,30.05,South,186,3.0,8.0,30,0.00,,,-99.99,Weather View 32 v60,2013-01-07 22:55:00,
2013-01-07 18:00:00,33.8,5.6,30.05,SSW,210,8.0,8.0,30,0.00,,,-99.99,Weather View 32 v60,2013-01-07 23:00:00,
2013-01-07 18:05:00,33.6,6.2,30.02,SW,236,4.0,8.0,31,0.00,,,-99.99,Weather View 32 v60,2013-01-07 23:05:00,
2013-01-07 18:10:00,33.6,6.2,30.02,SW,215,3.0,8.0,31,0.00,,,-99.99,Weather View 32 v60,2013-01-07 23:10:00,
2013-01-07 18:15:00,33.6,6.2,30.02,SSW,192,2.0,8.0,31,0.00,,,-99.99,Weather View 32 v60,2013-01-07 23:15:00,
2013-01-07 18:20:00,33.6,6.2,30.02,South,179,3.0,8.0,31,0.00,,,-99.99,Weather View 32 v60,2013-01-07 23:20:00,
2013-01-07 18:25:00,33.4,6.0,30.02,South,173,6.0,8.0,31,0.00,,,-99.99,Weather View 32 v60,2013-01-07 23:25:00,
2013-01-07 18:30:00,33.3,5.9,30.02,SSW,198,3.0,8.0,31,0.00,,,-99.99,Weather View 32 v60,2013-01-07 23:30:00,
2013-01-07 18:35:00,33.3,5.9,30.02,NW,326,3.0,8.0,31,0.00,,,-99.99,Weather View 32 v60,2013-01-07 23:35:00,
2013-01-07 18:40:00,33.3,5.9,30.02,SSE,158,4.0,8.0,31,0.00,,,-99.99,Weather View 32 v60,2013-01-07 23:40:00,
2013-01-07 18:45:00,33.1,5.7,30.02,SSE,164,3.0,8.0,31,0.00,,,-99.99,Weather View 32 v60,2013-01-07 23:45:00,
2013-01-07 18:50:00,32.9,5.5,30.02,SSW,207,3.0,8.0,31,0.00,,,-99.99,Weather View 32 v60,2013-01-07 23:50:00,
2013-01-07 18:55:00,32.9,5.5,30.02,ESE,112,3.0,8.0,31,0.00,,,-99.99,Weather View 32 v60,2013-01-07 23:55:00,
2013-01-07 19:00:00,32.7,6.1,30.02,SE,126,4.0,8.0,32,0.00,,,-99.99,Weather View 32 v60,2013-01-08 00:00:00,
2013-01-07 19:05:00,32.7,6.1,30.02,SE,138,4.0,8.0,32,0.00,,,-99.99,Weather View 32 v60,2013-01-08 00:05:00,
2013-01-07 19:10:00,32.7,6.1,30.02,South,173,4.0,8.0,32,0.00,,,-99.99,Weather View 32 v60,2013-01-08 00:10:00,
2013-01-07 19:15:00,32.7,6.1,30.02,South,176,4.0,8.0,32,0.00,,,-99.99,Weather View 32 v60,2013-01-08 00:15:00,
2013-01-07 19:20:00,32.5,5.9,30.02,SSW,200,3.0,8.0,32,0.00,,,-99.99,Weather View 32 v60,2013-01-08 00:20:00,
2013-01-07 19:25:00,32.5,5.9,30.02,WSW,257,3.0,8.0,32,0.00,,,-99.99,Weather View 32 v60,2013-01-08 00:25:00,
2013-01-07 19:30:00,32.5,5.9,30.02,SE,131,0.0,8.0,32,0.00,,,-99.99,Weather View 32 v60,2013-01-08 00:30:00,
2013-01-07 19:35:00,32.4,5.8,30.02,SE,146,3.0,8.0,32,0.00,,,-99.99,Weather View 32 v60,2013-01-08 00:35:00,
2013-01-07 19:40:00,32.4,5.8,30.02,South,189,3.0,8.0,32,0.00,,,-99.99,Weather View 32 v60,2013-01-08 00:40:00,
2013-01-07 19:45:00,32.2,5.6,30.02,South,181,5.0,8.0,32,0.00,,,-99.99,Weather View 32 v60,2013-01-08 00:45:00,
2013-01-07 19:55:00,32.2,6.3,30.02,SSE,166,0.0,8.0,33,0.00,,,-99.99,Weather View 32 v60,2013-01-08 00:55:00,
2013-01-07 20:00:00,32.2,6.3,30.02,SSW,203,3.0,8.0,33,0.00,,,-99.99,Weather View 32 v60,2013-01-08 01:00:00,
2013-01-07 20:05:00,32.0,6.1,30.02,SSW,200,0.0,8.0,33,0.00,,,-99.99,Weather View 32 v60,2013-01-08 01:05:00,
2013-01-07 20:10:00,32.0,6.1,30.02,SW,224,2.0,6.0,33,0.00,,,-99.99,Weather View 32 v60,2013-01-08 01:10:00,
2013-01-07 20:15:00,32.0,6.1,30.02,SSE,158,3.0,6.0,33,0.00,,,-99.99,Weather View 32 v60,2013-01-08 01:15:00,
2013-01-07 20:20:00,32.0,6.1,30.02,South,171,5.0,8.0,33,0.00,,,-99.99,Weather View 32 v60,2013-01-08 01:20:00,
2013-01-07 20:25:00,32.0,6.1,30.02,SW,215,3.0,8.0,33,0.00,,,-99.99,Weather View 32 v60,2013-01-08 01:25:00,
2013-01-07 20:30:00,32.0,6.1,30.02,SSW,197,3.0,8.0,33,0.00,,,-99.99,Weather View 32 v60,2013-01-08 01:30:00,
2013-01-07 20:35:00,31.8,6.0,30.02,SSW,200,0.0,8.0,33,0.00,,,-99.99,Weather View 32 v60,2013-01-08 01:35:00,
2013-01-07 20:40:00,31.8,6.0,30.02,SSW,196,3.0,8.0,33,0.00,,,-99.99,Weather View 32 v60,2013-01-08 01:40:00,
2013-01-07 20:45:00,31.8,6.6,30.02,SW,214,0.0,8.0,34,0.00,,,-99.99,Weather View 32 v60,2013-01-08 01:45:00,
2013-01-07 20:50:00,31.8,6.6,30.02,SSW,197,0.0,8.0,34,0.00,,,-99.99,Weather View 32 v60,2013-01-08 01:50:00,
2013-01-07 20:55:00,31.6,6.5,30.02,West,281,0.0,8.0,34,0.00,,,-99.99,Weather View 32 v60,2013-01-08 01:55:00,
2013-01-07 21:00:00,31.6,6.5,30.02,SSW,210,0.0,8.0,34,0.00,,,-99.99,Weather View 32 v60,2013-01-08 02:00:00,
2013-01-07 21:05:00,31.6,6.5,30.02,South,186,3.0,8.0,34,0.00,,,-99.99,Weather View 32 v60,2013-01-08 02:05:00,
2013-01-07 21:10:00,31.6,6.5,30.02,SSW,208,0.0,8.0,34,0.00,,,-99.99,Weather View 32 v60,2013-01-08 02:10:00,
2013-01-07 21:15:00,31.6,6.5,30.02,SSE,153,3.0,8.0,34,0.00,,,-99.99,Weather View 32 v60,2013-01-08 02:15:00,
2013-01-07 21:20:00,31.6,6.5,30.02,South,190,4.0,8.0,34,0.00,,,-99.99,Weather View 32 v60,2013-01-08 02:20:00,
2013-01-07 21:25:00,31.6,6.5,30.02,South,191,0.0,8.0,34,0.00,,,-99.99,Weather View 32 v60,2013-01-08 02:25:00,
2013-01-07 21:30:00,31.6,6.5,30.02,WSW,238,0.0,8.0,34,0.00,,,-99.99,Weather View 32 v60,2013-01-08 02:30:00,
2013-01-07 21:35:00,31.6,7.1,30.02,SW,217,5.0,8.0,35,0.00,,,-99.99,Weather View 32 v60,2013-01-08 02:35:00,
2013-01-07 21:40:00,31.6,7.1,30.02,SSW,211,0.0,10.0,35,0.00,,,-99.99,Weather View 32 v60,2013-01-08 02:40:00,
2013-01-07 21:45:00,31.6,7.1,30.02,SW,222,4.0,10.0,35,0.00,,,-99.99,Weather View 32 v60,2013-01-08 02:45:00,
2013-01-07 21:50:00,31.6,7.1,30.02,WSW,245,4.0,10.0,35,0.00,,,-99.99,Weather View 32 v60,2013-01-08 02:50:00,
2013-01-07 21:55:00,31.6,7.1,30.02,SW,234,4.0,10.0,35,0.00,,,-99.99,Weather View 32 v60,2013-01-08 02:55:00,
2013-01-07 22:00:00,31.6,7.1,30.02,West,259,4.0,10.0,35,0.00,,,-99.99,Weather View 32 v60,2013-01-08 03:00:00,
2013-01-07 22:05:00,31.6,7.1,30.02,SSW,208,5.0,10.0,35,0.00,,,-99.99,Weather View 32 v60,2013-01-08 03:05:00,
2013-01-07 22:15:00,31.5,7.6,30.02,SW,235,2.0,10.0,36,0.00,,,-99.99,Weather View 32 v60,2013-01-08 03:15:00,
2013-01-07 22:20:00,31.5,7.6,30.02,SW,231,6.0,10.0,36,0.00,,,-99.99,Weather View 32 v60,2013-01-08 03:20:00,
2013-01-07 22:25:00,31.5,7.6,30.02,WSW,257,3.0,10.0,36,0.00,,,-99.99,Weather View 32 v60,2013-01-08 03:25:00,
2013-01-07 22:30:00,31.5,7.6,30.02,WSW,251,3.0,10.0,36,0.00,,,-99.99,Weather View 32 v60,2013-01-08 03:30:00,
2013-01-07 22:35:00,31.3,7.4,30.02,WSW,246,4.0,10.0,36,0.00,,,-99.99,Weather View 32 v60,2013-01-08 03:35:00,
2013-01-07 22:40:00,31.3,7.4,30.02,WSW,238,0.0,10.0,36,0.00,,,-99.99,Weather View 32 v60,2013-01-08 03:40:00,
2013-01-07 22:45:00,31.3,7.4,30.02,SSW,193,3.0,10.0,36,0.00,,,-99.99,Weather View 32 v60,2013-01-08 03:45:00,
2013-01-07 22:50:00,31.3,7.4,30.02,South,181,5.0,10.0,36,0.00,,,-99.99,Weather View 32 v60,2013-01-08 03:50:00,
2013-01-07 22:55:00,31.3,7.4,30.02,SSW,203,5.0,10.0,36,0.00,,,-99.99,Weather View 32 v60,2013-01-08 03:55:00,
2013-01-07 23:00:00,31.1,7.8,30.02,South,188,4.0,10.0,37,0.00,,,-99.99,Weather View 32 v60,2013-01-08 04:00:00,
2013-01-07 23:05:00,31.1,7.8,30.02,SW,219,3.0,10.0,37,0.00,,,-99.99,Weather View 32 v60,2013-01-08 04:05:00,
2013-01-07 23:10:00,31.1,7.8,30.02,South,190,6.0,10.0,37,0.00,,,-99.99,Weather View 32 v60,2013-01-08 04:10:00,
2013-01-07 23:15:00,31.1,7.8,30.02,WSW,248,4.0,11.0,37,0.00,,,-99.99,Weather View 32 v60,2013-01-08 04:15:00,
2013-01-07 23:20:00,31.1,7.8,30.05,South,175,4.0,11.0,37,0.00,,,-99.99,Weather View 32 v60,2013-01-08 04:20:00,
2013-01-07 23:25:00,31.1,8.4,30.05,West,269,3.0,11.0,38,0.00,,,-99.99,Weather View 32 v60,2013-01-08 04:25:00,
2013-01-07 23:30:00,31.1,8.4,30.05,WSW,237,4.0,11.0,38,0.00,,,-99.99,Weather View 32 v60,2013-01-08 04:30:00,
2013-01-07 23:35:00,31.1,8.4,30.05,SW,221,3.0,11.0,38,0.00,,,-99.99,Weather View 32 v60,2013-01-08 04:35:00,
2013-01-07 23:40:00,31.1,8.4,30.05,SW,232,0.0,11.0,38,0.00,,,-99.99,Weather View 32 v60,2013-01-08 04:40:00,
2013-01-07 23:45:00,30.9,8.3,30.05,SW,219,3.0,11.0,38,0.00,,,-99.99,Weather View 32 v60,2013-01-08 04:45:00,
2013-01-07 23:50:00,30.9,8.3,30.05,SSW,201,4.0,11.0,38,0.00,,,-99.99,Weather View 32 v60,2013-01-08 04:50:00,
2013-01-07 23:55:00,30.9,8.3,30.05,SW,230,8.0,11.0,38,0.00,,,-99.99,Weather View 32 v60,2013-01-08 04:55:00,